[[{"header":{"parameterUnit":"m.s-1","parameterCategory":1,"la1":30.2991,"la2":30.254,"lo1":-89.0895,"lo2":-89.0444,"dy":0.0017,"dx":0.0017,"nx":28,"ny":28,"refTime":"2025-11-13T09:00:00:Z","depth":0,"parameterNumber":2,"parameterNumberName":"U-component_of_WINDS"},"data":[0,0,0,0,0,0,0,0,0,0,0,0,0,0,0,0,0,0,0,0,0,0,0,0,0,0,0,0,0,0,0,0,0,0,0,0,0,0,0,0,0,0,0,0,0,0,0,0,0,0,0,0,0,0,0,0,0,0,0.1229,0.1229,0,0.1207,0.1207,0.1207,0.118,0.118,0.1179,0.1179,0.1157,0.1157,0.1157,0,0,0,0,0,0,0,0,0,0,0,0,0,0.1248,0.1248,0.1229,0.1229,0.1228,0.1207,0.1207,0.1207,0.118,0.118,0.1179,0.1179,0.1157,0.1157,0.1157,0,0,0,0,0,0,0,0,0,0,0,0,0,0.1235,0.1248,0.1229,0.1213,0.1211,0.1207,0.1207,0.1207,0.118,0.118,0.1179,0.1179,0.1157,0.1157,0.1157,0.1168,0,0,0.1156,0.1156,0,0,0,0,0,0,0,0,0.1235,0.1234,0.1215,0.1214,0.1212,0.1196,0.1206,0.1194,0.1181,0.1192,0.1179,0.1178,0.1171,0.1169,0.1167,0.1167,0.1166,0.1156,0.1156,0.1156,0.1156,0,0,0,0,0,0,0,0.1236,0.1235,0.122,0.1215,0.1213,0.1207,0.1204,0.1203,0.1185,0.1191,0.1189,0.1187,0.117,0.1167,0.1166,0.1166,0.1156,0.1156,0.1156,0.1156,0.1176,0.1177,0,0,0,0,0,0,0.124,0.1236,0.1221,0.122,0.1222,0.1207,0.1204,0.1202,0.1185,0.1182,0.1187,0.1186,0.1168,0.1166,0.1165,0.1178,0.1156,0.1156,0.1155,0.1175,0.1176,0.1177,0,0,0,0,0,0,0.124,0.1239,0.1222,0.1227,0.1225,0.1207,0.1205,0.1202,0.1199,0.1182,0.1179,0.1188,0.1167,0.1165,0.1168,0.1177,0.1155,0.1155,0.1174,0.1176,0.1176,0.1204,0,0,0,0,0,0,0.1241,0.1239,0.1242,0.1227,0.1224,0.1225,0.1205,0.1202,0.1198,0.1196,0.1182,0.1179,0.1167,0.1168,0.1168,0.1177,0.1155,0.1174,0.1175,0.1176,0.1203,0.1206,0.1209,0,0,0,0,0,0.1242,0.1251,0.1243,0.1241,0.1228,0.1225,0.1224,0.1209,0.1199,0.1203,0.1193,0.118,0.1176,0.1169,0.1168,0.1177,0.1173,0.1175,0.1176,0.1201,0.1206,0.1209,0,0,0,0,0,0,0.1267,0.1248,0.1239,0.1244,0.1236,0.1221,0.1225,0.1214,0.1209,0.1207,0.1189,0.1186,0.1191,0.1184,0.1176,0.1187,0.1173,0.1174,0.1192,0.1196,0.12,0.1202,0.1155,0,0,0,0,0,0.1273,0.1272,0.1256,0.1261,0.1258,0.1242,0.124,0.123,0.1221,0.1218,0.1208,0.12,0.1198,0.1196,0.1193,0.1201,0.1199,0.1207,0.121,0.1213,0.1215,0.1221,0.1225,0.1182,0.1182,0.1182,0,0,0.1286,0.1276,0.1276,0.1266,0.1259,0.1259,0.124,0.124,0.124,0.1218,0.122,0.1213,0.1203,0.1209,0.1211,0.1203,0.1226,0.1215,0.1218,0.1218,0.1223,0.1227,0.1231,0.1183,0.1183,0.1183,0,0,0.131,0.1301,0.1306,0.1299,0.1289,0.1279,0.128,0.1266,0.126,0.1262,0.1246,0.1246,0.1241,0.1236,0.1233,0.1256,0.1244,0.1255,0.1273,0.1279,0.1283,0.1286,0.1296,0.13,0.1257,0.1257,0.1257,0,0.1327,0.1326,0.1309,0.1311,0.1308,0.1289,0.1294,0.1288,0.1278,0.1276,0.1267,0.1263,0.1255,0.126,0.1266,0.1263,0.1265,0.1257,0.1284,0.1286,0.1289,0.1298,0.1302,0.1258,0.1258,0.1258,0.1258,0,0.1348,0.1348,0.1353,0.1344,0.1341,0.1344,0.133,0.1329,0.1319,0.131,0.1313,0.1303,0.1298,0.1298,0.1288,0.1303,0.1298,0.1287,0.1272,0.1295,0.1304,0.1307,0.126,0.126,0.1259,0.1259,0,0,0.1387,0.137,0.1372,0.1369,0.1356,0.1356,0.1359,0.1355,0.1355,0.1349,0.1352,0.1349,0.1339,0.1335,0.1324,0.1329,0.1351,0.1317,0.1317,0.1325,0.1369,0.1379,0.1383,0.1342,0.1343,0.1343,0.137,0,0.141,0.1414,0.14,0.1409,0.1409,0.1391,0.1394,0.1387,0.1379,0.1379,0.1369,0.1369,0.1354,0.1352,0.1356,0.1347,0.1359,0.1345,0.1347,0.1347,0.1351,0.1387,0.1397,0.1423,0.1373,0.1374,0.1374,0,0.1436,0.1432,0.1441,0.143,0.143,0.1432,0.1428,0.1427,0.142,0.1414,0.1411,0.1398,0.1401,0.1386,0.1392,0.1382,0.1382,0.1378,0.1378,0.1379,0.1363,0.1391,0.1431,0.1435,0.1379,0.1379,0.1378,0,0.1467,0.1463,0.1468,0.1465,0.1452,0.1455,0.1449,0.1441,0.144,0.1436,0.1436,0.1432,0.1431,0.1429,0.1416,0.1406,0.1424,0.1407,0.142,0.1421,0.1426,0.1426,0.1468,0.1423,0.1423,0.1423,0.1423,0,0.1494,0.15,0.1481,0.1485,0.1492,0.1476,0.1484,0.1477,0.147,0.1472,0.1456,0.1459,0.1441,0.1442,0.1432,0.1439,0.1438,0.1434,0.1432,0.1437,0.1438,0.1438,0.1436,0.1424,0.1423,0.1423,0.1423,0,0.1529,0.1516,0.1521,0.1509,0.1506,0.1512,0.1501,0.1505,0.1495,0.1499,0.1499,0.1485,0.1486,0.1473,0.147,0.1464,0.1476,0.1469,0.1479,0.1477,0.1492,0.1492,0.1537,0.1543,0.1492,0.1493,0.1493,0,0.1548,0.1553,0.1541,0.1542,0.1538,0.1538,0.1537,0.1522,0.1522,0.1515,0.1519,0.1519,0.1517,0.1519,0.151,0.1508,0.1503,0.1519,0.1503,0.1508,0.1506,0.1506,0.1508,0.1523,0.1523,0.1524,0.1524,0,0.1584,0.1578,0.1577,0.1575,0.1574,0.1571,0.1567,0.1569,0.1553,0.1553,0.1554,0.1553,0.1552,0.1552,0.1549,0.1544,0.1532,0.1529,0.1533,0.1539,0.1545,0.1544,0.149,0.1529,0.1528,0.1528,0.1528,0.1527,0.1613,0.1617,0.161,0.161,0.1606,0.1603,0.1606,0.1598,0.1598,0.1596,0.1587,0.159,0.1584,0.1579,0.1575,0.1578,0.157,0.1575,0.1576,0.1578,0.1582,0.1543,0.1577,0.1577,0.1577,0.1577,0.1577,0,0.165,0.1645,0.1645,0.1641,0.1641,0.163,0.1625,0.1627,0.1629,0.1625,0.1624,0.1626,0.1627,0.1617,0.1617,0.1621,0.1616,0.1622,0.1622,0.1622,0.1587,0.1585,0.1626,0.1626,0.1626,0.1626,0.1626,0.1626,0.1669,0.1676,0.167,0.1675,0.167,0.1673,0.1672,0.1669,0.1666,0.1669,0.1669,0.1663,0.1657,0.1657,0.1657,0.1654,0.1656,0.1664,0.166,0.1628,0.1624,0.1619,0.1618,0.1664,0.1664,0.1694,0.1695,0.1695]},{"header":{"parameterUnit":"m.s-1","parameterCategory":1,"la1":30.2991,"la2":30.254,"lo1":-89.0895,"lo2":-89.0444,"dy":0.0017,"dx":0.0017,"nx":28,"ny":28,"refTime":"2025-11-13T09:00:00:Z","depth":0,"parameterNumber":3,"parameterNumberName":"V-component_of_WINDS"},"data":[0,0,0,0,0,0,0,0,0,0,0,0,0,0,0,0,0,0,0,0,0,0,0,0,0,0,0,0,0,0,0,0,0,0,0,0,0,0,0,0,0,0,0,0,0,0,0,0,0,0,0,0,0,0,0,0,0,0,-0.7563,-0.7564,0,-0.7613,-0.7614,-0.7614,-0.7604,-0.7603,-0.7602,-0.7602,-0.7652,-0.7654,-0.7656,0,0,0,0,0,0,0,0,0,0,0,0,0,-0.7459,-0.7461,-0.7563,-0.7564,-0.7564,-0.7613,-0.7614,-0.7614,-0.7604,-0.7603,-0.7602,-0.7601,-0.7651,-0.7654,-0.7657,0,0,0,0,0,0,0,0,0,0,0,0,0,-0.7506,-0.7462,-0.7563,-0.7565,-0.7566,-0.7613,-0.7614,-0.7614,-0.7605,-0.7603,-0.7602,-0.7601,-0.7651,-0.7654,-0.7657,-0.7704,0,0,-0.7667,-0.7668,0,0,0,0,0,0,0,0,-0.7504,-0.751,-0.7564,-0.7565,-0.7566,-0.7601,-0.7595,-0.7645,-0.7605,-0.759,-0.7602,-0.76,-0.7636,-0.7641,-0.7653,-0.7707,-0.7709,-0.7667,-0.7669,-0.7671,-0.7672,0,0,0,0,0,0,0,-0.75,-0.7508,-0.7583,-0.7565,-0.7566,-0.7564,-0.7569,-0.7605,-0.762,-0.7591,-0.7591,-0.7597,-0.7636,-0.765,-0.7654,-0.771,-0.7667,-0.767,-0.7672,-0.7673,-0.7805,-0.7807,0,0,0,0,0,0,-0.7496,-0.7505,-0.7581,-0.7584,-0.7531,-0.7567,-0.7573,-0.7591,-0.762,-0.7623,-0.7598,-0.7596,-0.7645,-0.765,-0.7656,-0.7714,-0.7671,-0.7674,-0.7676,-0.7804,-0.7806,-0.7807,0,0,0,0,0,0,-0.7494,-0.7503,-0.7579,-0.7545,-0.7554,-0.757,-0.7591,-0.7593,-0.7606,-0.7625,-0.7627,-0.7609,-0.7644,-0.7651,-0.7692,-0.7715,-0.7675,-0.7678,-0.7802,-0.7804,-0.7806,-0.7829,0,0,0,0,0,0,-0.7491,-0.7502,-0.7521,-0.7545,-0.7556,-0.7615,-0.7592,-0.7595,-0.7612,-0.761,-0.7636,-0.7638,-0.7643,-0.7688,-0.7696,-0.7719,-0.7681,-0.78,-0.7803,-0.7806,-0.7826,-0.7832,-0.7837,0,0,0,0,0,-0.7487,-0.7525,-0.7522,-0.7531,-0.7579,-0.7617,-0.7623,-0.7628,-0.7614,-0.7632,-0.7644,-0.7638,-0.7711,-0.7692,-0.7701,-0.7725,-0.7799,-0.7802,-0.7805,-0.7824,-0.7831,-0.7837,0,0,0,0,0,0,-0.7503,-0.7528,-0.7525,-0.7571,-0.7592,-0.7615,-0.7639,-0.7635,-0.766,-0.7657,-0.7662,-0.7668,-0.771,-0.7722,-0.77,-0.7773,-0.7753,-0.7758,-0.7764,-0.7771,-0.7775,-0.7772,-0.7684,0,0,0,0,0,-0.7512,-0.754,-0.7561,-0.76,-0.761,-0.7623,-0.7639,-0.7641,-0.7663,-0.7671,-0.7686,-0.7707,-0.7735,-0.7753,-0.778,-0.7828,-0.7833,-0.7849,-0.7854,-0.7858,-0.7863,-0.789,-0.7897,-0.7819,-0.7818,-0.7818,0,0,-0.753,-0.7547,-0.7565,-0.7603,-0.7619,-0.7649,-0.763,-0.7662,-0.7684,-0.7676,-0.7716,-0.7728,-0.7752,-0.7797,-0.7817,-0.7808,-0.7886,-0.7863,-0.7866,-0.7868,-0.7894,-0.7901,-0.7908,-0.7821,-0.782,-0.782,0,0,-0.7579,-0.7595,-0.7629,-0.7646,-0.7671,-0.7679,-0.7687,-0.7711,-0.7718,-0.7758,-0.7754,-0.7779,-0.7827,-0.7844,-0.7859,-0.7915,-0.791,-0.7923,-0.795,-0.7976,-0.7982,-0.7987,-0.8007,-0.8014,-0.7928,-0.7928,-0.7928,0,-0.7599,-0.7643,-0.7647,-0.768,-0.7697,-0.7692,-0.7727,-0.7742,-0.7775,-0.7786,-0.7775,-0.7835,-0.7851,-0.79,-0.7913,-0.7925,-0.7935,-0.792,-0.798,-0.7986,-0.7991,-0.8011,-0.8018,-0.7929,-0.7929,-0.7929,-0.7929,0,-0.7666,-0.7697,-0.7722,-0.7753,-0.7773,-0.7807,-0.7816,-0.7835,-0.7836,-0.7845,-0.7886,-0.7905,-0.7935,-0.7947,-0.7947,-0.7996,-0.7989,-0.7979,-0.7959,-0.8,-0.8018,-0.8026,-0.7931,-0.7931,-0.793,-0.793,0,0,-0.7726,-0.776,-0.7769,-0.7784,-0.781,-0.7834,-0.7867,-0.7897,-0.7914,-0.7936,-0.7964,-0.8005,-0.7996,-0.8013,-0.8015,-0.8038,-0.8081,-0.8025,-0.8026,-0.8035,-0.8136,-0.8144,-0.8152,-0.8077,-0.8079,-0.808,-0.8134,0,-0.7778,-0.7837,-0.7842,-0.7895,-0.7924,-0.7919,-0.7948,-0.7967,-0.7977,-0.8002,-0.8012,-0.8041,-0.8027,-0.8037,-0.8059,-0.8071,-0.8101,-0.8067,-0.8104,-0.8105,-0.8099,-0.8162,-0.817,-0.822,-0.8141,-0.8142,-0.8143,0,-0.7846,-0.7871,-0.7927,-0.795,-0.7962,-0.7988,-0.8016,-0.804,-0.8062,-0.8068,-0.8087,-0.8086,-0.812,-0.8098,-0.8145,-0.8122,-0.8137,-0.8145,-0.8147,-0.8151,-0.8127,-0.8168,-0.8236,-0.8244,-0.8154,-0.8153,-0.8153,0,-0.7885,-0.7932,-0.7972,-0.7984,-0.8012,-0.8031,-0.8043,-0.8064,-0.8081,-0.8106,-0.8117,-0.8145,-0.816,-0.8182,-0.8188,-0.8172,-0.8235,-0.8214,-0.8241,-0.8241,-0.8255,-0.8254,-0.8327,-0.8264,-0.8264,-0.8264,-0.8263,0,-0.7943,-0.7977,-0.799,-0.8014,-0.8053,-0.8058,-0.8096,-0.8107,-0.8126,-0.8152,-0.815,-0.8175,-0.8182,-0.8208,-0.8213,-0.8252,-0.8258,-0.8264,-0.8265,-0.8264,-0.8264,-0.8275,-0.8272,-0.8266,-0.8265,-0.8265,-0.8264,0,-0.7993,-0.8003,-0.8046,-0.8069,-0.8075,-0.8103,-0.8122,-0.8146,-0.8154,-0.8188,-0.8196,-0.821,-0.8241,-0.8249,-0.8286,-0.829,-0.8335,-0.8332,-0.8328,-0.8328,-0.8354,-0.8352,-0.8438,-0.8449,-0.8378,-0.8378,-0.8379,0,-0.8029,-0.8056,-0.8082,-0.8099,-0.8113,-0.8141,-0.8159,-0.8165,-0.8184,-0.8212,-0.8232,-0.8262,-0.8287,-0.8336,-0.8349,-0.8377,-0.8375,-0.8404,-0.838,-0.8378,-0.8377,-0.8375,-0.8378,-0.8408,-0.8409,-0.841,-0.841,0,-0.8093,-0.8096,-0.8123,-0.8151,-0.8173,-0.8195,-0.8217,-0.8231,-0.8241,-0.8262,-0.8294,-0.8313,-0.835,-0.838,-0.8409,-0.8421,-0.8418,-0.8418,-0.8425,-0.8425,-0.8422,-0.8425,-0.834,-0.8416,-0.8415,-0.8415,-0.8414,-0.8414,-0.8138,-0.8161,-0.8183,-0.8213,-0.823,-0.825,-0.8273,-0.8285,-0.8311,-0.8343,-0.8344,-0.8379,-0.84,-0.8438,-0.8452,-0.8478,-0.847,-0.8481,-0.8484,-0.8487,-0.8489,-0.8417,-0.8483,-0.8483,-0.8483,-0.8483,-0.8483,0,-0.8202,-0.8215,-0.8243,-0.8273,-0.8296,-0.8291,-0.8314,-0.8334,-0.8364,-0.8385,-0.8409,-0.8445,-0.8474,-0.849,-0.8519,-0.8537,-0.8536,-0.8545,-0.8544,-0.8547,-0.8495,-0.8486,-0.8545,-0.8545,-0.8545,-0.8545,-0.8545,-0.8545,-0.8238,-0.8277,-0.8283,-0.8331,-0.8345,-0.8379,-0.8393,-0.8411,-0.8428,-0.8468,-0.8493,-0.8502,-0.8521,-0.8551,-0.8578,-0.8581,-0.8592,-0.8602,-0.8605,-0.8557,-0.855,-0.8544,-0.8535,-0.8604,-0.8604,-0.8654,-0.8655,-0.8655]}]]